www.pogodaiklimat.ru

Погода и климат >> Архив погоды >> Бельгия >> Брюссель


АРХИВ ПОГОДЫ в Брюсселе

Время (UTC), дата Ветер
(напр.,м/с)
 
Видим.   Явления Облачность Т
(С)
Тd
(С)
f
(%)
Тe
(С)
Тes
(С)
Комфортность P
(гПа)
Po
(гПа)
Тmin
(С)
Tmax
(С)
R
(мм)
R24
(мм)
S
(см)
13 13.06 Ю 5
{12}
20 км в посл. час ливневой дождь 8/5 1020 м
[Cu Sc Ac trans Ci sp]
+16.3 +12.6 79 +15 +18 прохладно 1011.7 1005.2
14 13.06 Ю 7
{12}
6000 м ливневой дождь 8/5 750 м
[Cb cap Ac cuf Ci ing]
+15.2 +11.2 77 +13 +15 прохладно 1011.5 1005.0
15 13.06 ЮЗ 8
{13}
6000 м в посл. час ливневой дождь 8/5 750 м
[Cb cap Ac cuf Ci ing]
+18.5 +10.0 58 +18 +19 по сезону 1011.0 1004.5
16 13.06 З 3
{13}
8000 м слаб. ливневой дождь 8/5 750 м
[Cb cap Ac cuf Ci ing]
+14.5 +11.7 83 +14 +16 прохладно 1011.5 1004.9
17 13.06 Ю 6
{10}
8000 м в посл. час ливневой дождь 8/3 750 м
[Cb cap Ac cuf Ci ing]
+17.1 +10.7 66 +16 +17 по сезону 1010.7 1004.2
18 13.06 З 3
{13}
50 км {ливн. осадки} 8/5 750 м
[Cb cap Ac cuf Ci ing]
+16.8 +10.9 68 +17 +17 по сезону 1011.1 1004.6 +19.0 5
19 13.06 СЗ 3
{5}
9000 м гроза, ливневой дождь 9/8 750 м
[Cb cap Ac cuf Ci ing]
+14.3 +11.7 84 +13 +13 по сезону 1012.1 1005.6
20 13.06 ЮЗ 2
{6}
10 км зарница 9/5 750 м
[Cb calv Ac As]
+13.2 +11.6 90 +12 +12 по сезону 1012.4 1005.8
21 13.06 Ю 3
{6}
15 км в посл. час гроза {ливн. осадки} 6/5 750 м
[Cb cap Ac cuf Ci ing]
+12.9 +11.4 91 +11 +11 прохладно 1013.2 1006.6
22 13.06 Ю 3
{4}
15 км 6/6 1440 м
[Cu Sc]
+12.7 +11.5 92 +11 +11 тепло 1013.6 1007.0
23 13.06 Ю 2
{3}
15 км 8/8 1080 м
[Sc]
+12.2 +11.2 94 +11 +11 по сезону 1013.5 1006.9
00 14.06 ЮВ 1
{6}
15 км {гроза, ливн. осадки} 3/3 1000 м
[Sc Ci fib]
+11.1 +10.3 95 +11 +11 по сезону 1013.6 1006.9 5
01 14.06 ЮВ 2
{2}
35 км 3/0
[Ci fib]
+10.8 +9.9 94 +9 +9 по сезону 1013.0 1006.4
02 14.06 ЮВ 1
{3}
35 км 6/0
[Ci fib]
+10.5 +9.7 95 +10 +10 по сезону 1012.7 1006.1
03 14.06 Ю 1
{3}
35 км 5/0
[Ac trans Ci fib]
+10.4 +9.6 95 +10 +10 по сезону 1012.8 1006.1
04 14.06 Ю 2
{3}
35 км 8/4 1500 м
[Sc Ac As]
+11.6 +10.3 92 +10 +10 по сезону 1012.9 1006.3
05 14.06 Ю 2
{3}
35 км 9/0
[Ac cast]
+12.1 +10.8 92 +11 +11 по сезону 1013.0 1006.4
06 14.06 Ю 3
{4}
35 км 10/5 1500 м
[Sc Ac As]
+12.6 +11.0 90 +11 +11 по сезону 1014.3 1007.7 +9.7 5
07 14.06 Ю 2
{6}
10 км слаб. дождь 9/5 400 м
[Cu Sc Ac As Ci sp]
+13.3 +11.9 91 +13 +14 по сезону 1014.2 1007.6
08 14.06 ЮВ 2
{4}
20 км в посл. час дождь 8/1 2000 м
[Sc Ac trans Ci sp]
+15.7 +13.8 88 +16 +21 по сезону 1013.3 1006.8
09 14.06 Ю 4
{6}
20 км {ливн. осадки, дождь} 8/3 1000 м
[Cu Sc Ac trans Ci sp]
+16.8 +12.2 74 +16 +20 по сезону 1014.4 1007.8
10 14.06 ЮЗ 4
{7}
20 км 8/6 900 м
[Cu Sc Ac trans Ci sp]
+18.4 +11.8 65 +19 +22 по сезону 1014.8 1008.3
11 14.06 Ю 3
{7}
20 км 9/6 1050 м
[Cu Sc Ac trans Ci sp]
+19.4 +12.8 66 +21 +25 комфорт 1014.8 1008.3
12 14.06 Ю 4
{7}
20 км {ливн. осадки, дождь} 8/4 1000 м
[Cu Sc Ac trans Ci sp]
+20.7 +12.8 61 +23 +28 комфорт 1014.8 1008.3 0.6
13 14.06 Ю 4
{8}
20 км 8/3 1230 м
[Cu Sc Ac trans Ci sp]
+21.7 +13.1 58 +24 +29 комфорт 1014.6 1008.2
14 14.06 ЮЗ 4
{8}
20 км 6/1 1320 м
[Cu hum Ci sp]
+22.3 +11.9 52 +25 +32 комфорт 1014.0 1007.6
15 14.06 ЮЗ 2
{8}
20 км 6/1 1500 м
[Cu hum Ci sp]
+22.6 +13.0 55 +26 +34 жарко 1013.5 1007.1
16 14.06 ЮЗ 3
{6}
20 км 6/1 1470 м
[Cu hum Ci sp]
+22.9 +12.3 51 +26 +30 жарко 1013.1 1006.7
17 14.06 штиль 0
{4}
20 км 8/1 1380 м
[Cu hum Ci sp]
+22.8 +12.8 53 +26 +30 жарко 1012.9 1006.5
18 14.06 штиль 0
{8}
20 км 8/1 1380 м
[Cu hum Ci sp]
+22.4 +14.4 61 +26 +27 жарко 1012.6 1006.2 +23.9 0.6
19 14.06 СЗ 3
{4}
20 км 8/3 1500 м
[Cu Sc Ac trans Ci sp]
+21.0 +13.6 63 +24 +24 комфорт 1012.7 1006.3
20 14.06 С 2
{4}
45 км 8/1 2000 м
[Sc Ac trans Ci sp]
+19.8 +13.8 68 +22 +22 комфорт 1012.6 1006.2
21 14.06 С 3
{5}
45 км 8/5 1500 м
[Sc Ac trans Ci sp]
+18.6 +14.6 78 +20 +20 тепло 1012.9 1006.5
23 14.06 С 2
{4}
45 км 8/3 1500 м
[Sc Ac trans Ci sp]
+16.5 +13.7 84 +17 +17 тепло 1012.2 1005.7
00 15.06 С 2
{5}
45 км слаб. дождь 9/6 1500 м
[Sc Ac trans Ci sp]
+15.8 +13.4 86 +16 +16 тепло 1011.2 1004.7
01 15.06 СВ 1
{3}
30 км слаб. дождь 9/5 1500 м
[Sc Ac trans Ci sp]
+15.1 +13.6 91 +16 +16 тепло 1011.5 1005.0
02 15.06 СЗ 3
{4}
8000 м слаб. дождь 9/5 1410 м
[Sc Ac trans Ci sp]
+14.6 +13.3 92 +14 +14 тепло 1011.3 1004.8
03 15.06 СЗ 5
{6}
3500 м дождь 9/8 420 м
[Sc]
+12.8 +12.1 96 +10 +10 по сезону 1011.5 1004.9
04 15.06 СЗ 4
{8}
3000 м дождь 9/6 120 м
[Frnb]
+12.4 +11.8 96 +10 +10 по сезону 1011.7 1005.1
05 15.06 СВ 2
{6}
2500 м слаб. дождь 10/9 120 м
[Frnb]
+12.6 +12.2 97 +12 +12 по сезону 1011.5 1004.9
06 15.06 ЮЗ 3
{8}
3000 м слаб. дождь 10/9 150 м
[Sc]
+13.4 +12.8 96 +12 +12 по сезону 1012.3 1005.7 +12.4 24
07 15.06 ЮЗ 2
{4}
4000 м слаб. дождь 10/9 210 м
[Sc]
+14.6 +13.7 94 +14 +14 по сезону 1013.0 1006.4
08 15.06 ЮЗ 2
{3}
3500 м слаб. дождь 10/9 180 м
[Frnb]
+14.8 +13.8 94 +14 +15 по сезону 1013.5 1007.0
09 15.06 ЮЗ 2
{4}
6000 м в посл. час дождь 10/9 180 м
[Frnb]
+15.2 +13.9 92 +15 +16 по сезону 1014.2 1007.7
10 15.06 ЮЗ 2
{3}
6000 м в посл. час дождь 10/9 180 м
[Frnb]
+15.8 +14.5 92 +16 +17 прохладно 1014.6 1008.1
11 15.06 З 4
{7}
7000 м 10/9 180 м
[Cu Sc]
+16.5 +14.7 89 +16 +16 прохладно 1015.3 1008.8
12 15.06 З 4
{7}
7000 м {дождь} 8/6 400 м
[Cu Sc Ac trans Ci sp]
+17.9 +14.1 78 +18 +21 по сезону 1016.0 1009.5 0.2
13 15.06 З 2
{7}
10 км 8/3 630 м
[Cu Sc Ac trans Ci sp]
+19.6 +14.2 71 +22 +29 комфорт 1015.8 1009.4
14 15.06 нст 1
{5}
15 км 6/4 840 м
[Cu Sc Ac trans Ci sp]
+20.3 +13.2 64 +24 +32 комфорт 1015.6 1009.2
15 15.06 С 1
{7}
15 км в посл. час ливневой дождь 6/4 840 м
[Cu Sc Ac trans Ci sp]
+19.2 +13.8 71 +22 +28 комфорт 1015.8 1009.3
16 15.06 Ю 3
{6}
15 км 6/4 1080 м
[Cu Sc Ac trans Ci sp]
+20.2 +11.5 57 +22 +25 комфорт 1015.5 1009.1
17 15.06 З 5
{9}
15 км 6/4 1470 м
[Cu Sc Ac trans Ci sp]
+19.4 +12.1 63 +20 +21 тепло 1015.9 1009.4
18 15.06 СЗ 3
{9}
30 км {ливн. осадки} 6/4 1470 м
[Cu Sc Ac trans Ci sp]
+18.3 +12.9 71 +19 +19 тепло 1016.1 1009.6 +21.3 0.2
19 15.06 СЗ 1
{4}
30 км 5/3 1500 м
[Cu Sc Ac trans Ci sp]
+16.3 +13.0 81 +17 +17 тепло 1016.3 1009.7
20 15.06 штиль 0
{1}
30 км 5/1 1500 м
[Cu hum Ac trans Ci sp]
+14.9 +13.4 91 +15 +15 по сезону 1016.6 1010.0
21 15.06 Ю 1
{4}
30 км 4/0 2000 м
[Ac trans Ci sp]
+13.7 +12.8 94 +14 +14 по сезону 1016.9 1010.3
22 15.06 Ю 2
{3}
30 км 4/0 2000 м
[Ac trans Ci sp]
+13.5 +12.1 91 +13 +13 тепло 1017.2 1010.5
23 15.06 Ю 3
{3}
30 км 3/0
[Ac trans]
+13.3 +11.1 87 +12 +12 по сезону 1017.8 1011.2
00 16.06 Ю 3
{4}
30 км 1/0
[Ac trans]
+12.8 +10.6 86 +11 +11 по сезону 1018.1 1011.5
01 16.06 Ю 3
{4}
30 км 1/0
[Ac trans]
+12.1 +10.4 89 +10 +10 по сезону 1018.3 1011.6
02 16.06 Ю 3
{4}
30 км 3/3 1350 м
[Sc]
+12.3 +10.1 86 +11 +11 по сезону 1018.4 1011.7
03 16.06 Ю 3
{4}
30 км 5/5 1500 м
[Sc]
+12.8 +10.2 84 +11 +11 по сезону 1018.7 1012.1
04 16.06 Ю 3
{5}
30 км 1/1 1500 м
[Sc]
+12.2 +10.1 87 +11 +11 по сезону 1018.6 1011.9
05 16.06 ЮЗ 3
{5}
30 км 1/0 2000 м
[Ac trans Ci fib]
+13.6 +10.7 83 +12 +13 по сезону 1019.2 1012.6
06 16.06 ЮЗ 5
{7}
30 км 3/1 900 м
[Cu hum Ac und Ci fib]
+15.1 +11.5 79 +14 +15 по сезону 1019.3 1012.7 +11.8
07 16.06 ЮЗ 5
{8}
30 км 6/4 630 м
[Cu Sc Ac trans Ci fib]
+16.0 +11.7 76 +15 +16 по сезону 1019.8 1013.2
08 16.06 ЮЗ 5
{8}
30 км 8/6 540 м
[Cu Sc Ac trans Ci fib]
+16.5 +12.6 78 +16 +17 по сезону 1020.3 1013.7
09 16.06 ЮЗ 4
{8}
30 км 9/8 660 м
[Cu Sc Ac trans Ci sp]
+16.4 +12.0 75 +16 +17 по сезону 1020.7 1014.1
10 16.06 ЮЗ 4
{7}
30 км 6/5 800 м
[Cu Sc Ac trans Ci sp]
+19.0 +13.4 70 +20 +25 тепло 1020.8 1014.3
11 16.06 ЮЗ 5
{9}
30 км 9/8 900 м
[Cu Sc Ac trans Ci sp]
+18.0 +11.9 68 +18 +19 по сезону 1021.1 1014.6
12 16.06 ЮЗ 5
{9}
30 км 8/5 1050 м
[Cu Sc Ac trans Ci sp]
+20.0 +12.4 62 +22 +25 комфорт 1020.9 1014.4
13 16.06 ЮЗ 3
{9}
30 км 6/4 1260 м
[Cu Sc Ac trans Ci sp]
+21.0 +11.3 54 +24 +30 комфорт 1020.8 1014.3
14 16.06 ЮЗ 5
{8}
30 км 9/5 1300 м
[Cu Sc Ac trans Ci sp]
+20.0 +10.7 55 +21 +24 комфорт 1021.1 1014.6
15 16.06 ЮЗ 5
{9}
30 км 8/4 1320 м
[Cu Sc Ac trans Ci sp]
+21.0 +11.6 55 +23 +25 комфорт 1020.9 1014.4
16 16.06 ЮЗ 4
{7}
30 км осадки на расстоянии 9/5 1260 м
[Cu Sc Ac und Ci sp]
+20.2 +11.2 56 +22 +23 комфорт 1020.8 1014.4
17 16.06 З 3
{6}
15 км слаб. ливневой дождь 9/6 930 м
[Cu Sc Ac trans Ci sp]
+17.9 +13.8 77 +18 +19 по сезону 1021.1 1014.6
18 16.06 ЮЗ 4
{9}
15 км в посл. час ливневой дождь 8/6 1500 м
[Cu Sc Ac trans Ci sp]
+18.0 +14.1 78 +18 +18 по сезону 1021.4 1014.9 +21.5 0.0
19 16.06 Ю 1
{6}
15 км 6/5 1500 м
[Cu Sc Ac trans Ci fib]
+18.2 +13.8 75 +20 +20 тепло 1021.2 1014.7
20 16.06 Ю 2
{2}
45 км 4/1 1500 м
[Cu hum Ac trans Ci fib]
+16.0 +13.7 86 +16 +16 тепло 1021.2 1014.7
21 16.06 Ю 2
{6}
45 км 3/0
[Ac trans Ci fib]
+14.7 +13.6 93 +14 +14 по сезону 1021.6 1015.0
22 16.06 Ю 2
{2}
45 км 1/0 2000 м
[Ac trans Ci fib]
+14.3 +13.5 95 +14 +14 тепло 1021.7 1015.0
23 16.06 Ю 2
{3}
45 км ясно +13.8 +13.0 95 +13 +13 тепло 1021.5 1014.9
00 17.06 Ю 2
{6}
45 км ясно +13.7 +12.9 95 +13 +13 по сезону 1021.5 1014.8
01 17.06 ЮВ 1
{2}
45 км ясно +13.0 +12.1 94 +13 +13 тепло 1021.4 1014.7
02 17.06 ЮВ 1
{2}
45 км ясно +12.0 +11.2 95 +12 +12 по сезону 1021.2 1014.5
03 17.06 ЮВ 1
{2}
45 км ясно +11.8 +11.0 95 +12 +12 по сезону 1021.0 1014.3
04 17.06 ЮВ 2
{2}
45 км 1/0
[Ci fib]
+11.8 +10.9 94 +11 +11 по сезону 1021.0 1014.3
05 17.06 Ю 2
{3}
45 км 1/0
[Ci fib]
+14.0 +12.8 92 +13 +14 по сезону 1020.9 1014.3
06 17.06 Ю 2
{4}
50 км 1/0
[Ci sp]
+16.1 +13.6 85 +16 +19 тепло 1020.9 1014.3 +11.4
07 17.06 Ю 2
{4}
50 км 1/0
[Ci sp]
+18.8 +14.3 75 +20 +26 тепло 1021.1 1014.6
08 17.06 Ю 3
{5}
50 км 1/1 800 м
[Cu hum Ci sp]
+20.2 +13.7 66 +23 +29 комфорт 1021.0 1014.5
09 17.06 Ю 3
{5}
50 км 3/1 930 м
[Cu hum Ci sp]
+21.0 +13.2 61 +24 +33 комфорт 1020.9 1014.4
10 17.06 Ю 3
{6}
50 км 4/4 1200 м
[Cu hum Ci sp]
+22.3 +12.8 55 +25 +33 комфорт 1020.4 1014.0
11 17.06 Ю 3
{6}
50 км 5/5 1380 м
[Sc diur, vesp Ci sp]
+23.2 +13.3 54 +26 +34 жарко 1020.0 1013.6
12 17.06 ЮВ 2
{6}
50 км 6/6 1500 м
[Sc diur, vesp Ci sp]
+22.5 +12.7 54 +25 +32 комфорт 1019.8 1013.4
13 17.06 Ю 2
{6}
50 км 6/6 1500 м
[Sc diur, vesp Ci sp]
+23.6 +12.1 48 +25 +32 комфорт 1019.3 1012.9
14 17.06 Ю 2
{4}
50 км 6/6 1500 м
[Sc diur, vesp Ci sp]
+23.5 +13.3 53 +26 +31 жарко 1018.9 1012.5
15 17.06 Ю 2
{6}
50 км 5/5 1500 м
[Sc diur, vesp Ci sp]
+23.7 +15.3 59 +27 +32 жарко 1018.4 1012.1
16 17.06 нст 1
{4}
50 км 4/4 1500 м
[Sc diur, vesp Ci sp]
+24.9 +12.7 47 +27 +32 жарко 1018.1 1011.7
17 17.06 штиль 0
{3}
50 км 3/3 1500 м
[Sc diur, vesp Ci sp]
+25.1 +12.8 46 +27 +31 жарко 1017.8 1011.4
18 17.06 С 2
{6}
50 км 4/3 1500 м
[Sc Ci fib]
+23.7 +14.2 55 +26 +27 жарко 1017.5 1011.1 +25.5
19 17.06 С 1
{3}
50 км 4/1 1500 м
[Sc diur, vesp Ci fib]
+22.4 +13.8 58 +26 +26 жарко 1017.3 1010.9
20 17.06 СЗ 2
{3}
50 км 5/0
[Ci fib]
+19.9 +13.1 65 +22 +22 комфорт 1017.3 1010.8
21 17.06 С 1
{3}
50 км 5/0
[Ci fib]
+19.1 +12.8 67 +21 +21 комфорт 1017.2 1010.8
22 17.06 штиль 0
{1}
50 км 4/0
[Ci fib]
+17.0 +14.8 87 +17 +17 тепло 1017.1 1010.6
23 17.06 штиль 0
{1}
50 км 4/0
[Ci fib]
+16.2 +13.2 82 +16 +16 тепло 1017.3 1010.7
00 18.06 В 1
{3}
50 км 4/0
[Ac trans Ci fib]
+15.7 +13.7 88 +16 +16 тепло 1017.0 1010.4
01 18.06 В 1
{2}
50 км 6/6 1500 м
[Sc Ci fib]
+16.4 +14.2 87 +17 +17 тепло 1016.6 1010.1
02 18.06 нст 1
{1}
50 км 8/6 1500 м
[Cu Sc Ac cast Ci fib]
+16.5 +14.2 86 +17 +17 тепло 1016.3 1009.7
03 18.06 СЗ 1
{2}
13 км 5/1 1500 м
[Cu med, cong Ac cast Ci fib]
+15.0 +13.7 92 +15 +15 тепло 1016.1 1009.5
04 18.06 З 1
{3}
10 км 6/5 1500 м
[Sc Ac cast Ci fib]
+14.7 +13.5 93 +15 +15 тепло 1015.9 1009.3
05 18.06 СЗ 2
{3}
9000 м 5/0
[Ac cast Ci fib]
+15.7 +14.4 92 +16 +16 тепло 1016.1 1009.6
06 18.06 СЗ 1
{3}
15 км 6/0
[Ci sp]
+16.6 +14.8 89 +17 +20 тепло 1016.1 1009.6 +14.2
07 18.06 С 1
{3}
15 км 6/0
[Ci sp]
+18.3 +14.6 79 +20 +26 тепло 1016.1 1009.6
08 18.06 С 1
{2}
15 км 8/0
[Ci sp]
+19.9 +16.3 80 +23 +32 комфорт 1016.0 1009.5
09 18.06 нст 1
{3}
15 км 8/0
[Ci fib]
+21.7 +16.0 70 +25 +38 комфорт 1015.5 1009.1
10 18.06 С 1
{3}
15 км 8/0
[Ci fib]
+23.0 +16.4 66 +28 +43 душно 1015.3 1008.9
11 18.06 СВ 2
{4}
15 км 6/1 1110 м
[Cu hum Ac trans Ci fib]
+24.2 +15.7 59 +27 +38 жарко 1014.9 1008.6
12 18.06 нст 1
{4}
15 км 6/1 1350 м
[Cu hum Ci fib]
+24.6 +16.6 61 +28 +45 душно 1014.5 1008.2
13 18.06 СВ 1
{3}
15 км 6/1 1440 м
[Cu hum Ac trans Ci fib]
+24.3 +16.4 61 +28 +40 душно 1014.1 1007.8
14 18.06 В 1
{4}
15 км 6/1 1500 м
[Cu hum Ac trans Ci fib]
+25.5 +16.8 59 +29 +40 душно 1013.6 1007.3
15 18.06 нст 1
{4}
15 км 6/1 1500 м
[Cu hum Ac trans Ci fib]
+26.5 +11.7 40 +28 +36 жарко 1013.0 1006.7
16 18.06 Ю 1
{4}
15 км 5/1 1500 м
[Cu hum Ac trans Ci fib]
+26.7 +12.3 41 +28 +34 жарко 1012.4 1006.1
17 18.06 ЮВ 2
{4}
40 км 5/1 2000 м
[Cu hum Ci fib]
+25.8 +13.7 47 +28 +31 жарко 1012.0 1005.7
18 18.06 В 1
{4}
40 км 6/0
[Ac trans Ci fib]
+24.8 +14.2 52 +27 +29 жарко 1011.5 1005.2 +26.9
19 18.06 ЮВ 1
{3}
40 км 8/0
[Ac trans Ci fib]
+23.1 +17.2 69 +28 +28 душно 1011.4 1005.1
20 18.06 ЮВ 2
{3}
40 км 6/0
[Ac trans Ci fib]
+22.5 +15.3 64 +26 +26 жарко 1011.1 1004.7
21 18.06 ЮВ 1
{3}
40 км 4/0
[Ac trans Ci fib]
+20.2 +16.0 77 +24 +24 комфорт 1011.1 1004.7
22 18.06 ЮВ 2
{3}
40 км 4/0
[Ac trans Ci fib]
+19.9 +15.3 75 +23 +23 комфорт 1010.6 1004.2
23 18.06 ЮВ 2
{3}
40 км 1/0
[Ac trans Ci fib]
+18.2 +15.8 86 +19 +19 тепло 1010.1 1003.6
00 19.06 ЮВ 2
{3}
40 км 3/0
[Ac trans Ci fib]
+17.7 +15.0 84 +18 +18 тепло 1009.5 1003.0
01 19.06 ЮВ 2
{3}
40 км 1/0
[Ac trans Ci fib]
+17.0 +14.9 87 +17 +17 тепло 1009.0 1002.5
02 19.06 ЮВ 3
{3}
40 км 1/0
[Ac trans Ci fib]
+17.1 +14.4 84 +17 +17 тепло 1008.3 1001.8
03 19.06 ЮВ 2
{4}
40 км 4/0
[Ac trans Ci fib]
+16.9 +13.8 82 +17 +17 тепло 1007.7 1001.2
04 19.06 ЮВ 2
{3}
40 км 5/3 1500 м
[Cb cap Ac cast Ci ing]
+16.7 +13.9 84 +17 +17 тепло 1007.2 1000.7
05 19.06 ЮЗ 1
{6}
40 км 6/3 1500 м
[Cb cap Ac cast Ci ing]
+18.5 +15.9 85 +20 +21 тепло 1007.2 1000.7
06 19.06 СЗ 3
{6}
40 км 5/1 1350 м
[Cu hum Ac trans Ci fib]
+19.2 +15.5 79 +21 +23 комфорт 1007.4 1001.0 +16.2
07 19.06 С 4
{8}
30 км гроза без осадков 5/3 1440 м
[Cb calv Ac cast Ci ing]
+19.5 +15.3 77 +21 +24 комфорт 1007.2 1000.8
08 19.06 СВ 2
{8}
30 км 8/0
[As op Ci sp]
+20.3 +14.6 70 +23 +29 комфорт 1007.8 1001.4
09 19.06 В 1
{8}
30 км 5/0
[Ac trans Ci fib]
+20.8 +15.6 72 +25 +35 комфорт 1007.7 1001.4
10 19.06 Ю 2
{4}
30 км 6/0
[As op]
+22.8 +17.3 71 +28 +36 душно 1008.2 1001.9
11 19.06 нст 1
{7}
30 км в посл. час ливневой дождь 6/4 1500 м
[Cu Sc As op]
+22.8 +17.9 74 +28 +37 душно 1007.6 1001.3
12 19.06 Ю 1
{8}
30 км 6/1 1500 м
[Cu med, cong Ac trans Ci fib]
+24.1 +17.0 65 +28 +41 душно 1007.9 1001.6
13 19.06 Ю 3
{6}
30 км 4/1 1260 м
[Cu med, cong Ac trans Ci fib]
+25.9 +15.7 53 +29 +39 душно 1007.4 1001.2
14 19.06 ЮЗ 3
{9}
30 км гроза без осадков 4/4 1200 м
[Cb calv Ac trans Ci ing]
+24.4 +14.5 54 +27 +34 жарко 1006.8 1000.5
15 19.06 Ю 3
{17}
30 км в посл. час гроза 5/3 1200 м
[Cb cap Ac trans Ci sp]
+21.3 +17.8 80 +25 +31 комфорт 1007.4 1001.0
16 19.06 ЮЗ 5
{13}
8000 м гроза без осадков 5/5 900 м
[Cb cap Ac trans Ci sp]
+20.7 +16.8 78 +24 +26 комфорт 1008.1 1001.8
17 19.06 Ю 2
{13}
30 км в посл. час ливневой дождь 5/4 1350 м
[Cb calv Ac trans Ci fib]
+17.5 +16.4 93 +18 +20 по сезону 1008.0 1001.6
18 19.06 Ю 2
{17}
30 км {гроза, ливн. осадки} 6/4 1200 м
[Cb cap Ac As Ci ing]
+19.3 +16.8 85 +22 +23 комфорт 1007.8 1001.4 +26.7 4
19 19.06 Ю 2
{4}
30 км слаб. ливневой дождь 9/5 1200 м
[Cb cap Ac As Ci ing]
+18.3 +17.1 93 +19 +19 тепло 1008.1 1001.6
20 19.06 ЮЗ 2
{4}
30 км слаб. ливневой дождь 9/4 1200 м
[Cb calv Ac As]
+17.9 +16.7 93 +18 +18 тепло 1008.7 1002.2
21 19.06 ЮЗ 3
{7}
30 км в посл. час ливневой дождь 9/9 540 м
[Cu Sc]
+16.9 +15.5 91 +17 +17 тепло 1009.0 1002.5
22 19.06 ЮЗ 4
{5}
30 км 10/9 330 м
[St]
+16.9 +15.6 92 +16 +16 тепло 1009.6 1003.1
23 19.06 ЮЗ 3
{5}
30 км 9/9 720 м
[Sc]
+16.0 +15.2 95 +15 +15 тепло 1009.9 1003.4
00 20.06 ЮЗ 2
{7}
30 км {ливн. осадки} 6/6 270 м
[Sc Ac trans Ci fib]
+16.0 +15.2 95 +16 +16 тепло 1010.3 1003.8 0.4
01 20.06 ЮЗ 3
{5}
10 км 6/6 870 м
[Sc Ci fib]
+16.0 +14.8 93 +15 +15 тепло 1010.4 1003.9
02 20.06 ЮЗ 3
{6}
7000 м 8/8 360 м
[Sc]
+15.2 +14.0 93 +14 +14 тепло 1010.6 1004.1
03 20.06 ЮЗ 3
{6}
7000 м 6/6 270 м
[St Ac trans Ci fib]
+14.5 +13.3 93 +14 +14 тепло 1011.1 1004.5
04 20.06 ЮЗ 3
{6}
7000 м 8/0
[Ac trans]
+14.5 +13.4 93 +14 +14 тепло 1011.3 1004.7
05 20.06 ЮЗ 3
{6}
8000 м 9/9 300 м
[St]
+14.7 +13.6 93 +14 +14 тепло 1011.6 1005.0
06 20.06 ЮЗ 4
{6}
6000 м 9/9 330 м
[Cu Sc]
+15.2 +13.5 90 +14 +14 по сезону 1012.0 1005.4 +14.3 0.4
07 20.06 ЮЗ 4
{8}
6000 м 9/9 360 м
[Cu Sc]
+15.5 +13.4 87 +15 +15 по сезону 1012.1 1005.6
08 20.06 ЮЗ 4
{6}
15 км 9/9 570 м
[Cu Sc]
+16.5 +13.3 81 +16 +16 по сезону 1012.4 1005.9
09 20.06 ЮЗ 4
{8}
15 км 9/9 570 м
[Cu Sc]
+16.8 +13.7 82 +16 +17 по сезону 1012.5 1006.0
10 20.06 З 4
{8}
15 км 9/8 800 м
[Cu Sc Ac trans Ci sp]
+18.4 +13.3 72 +19 +20 по сезону 1012.8 1006.3
11 20.06 З 3
{7}
15 км 9/8 840 м
[Cu Sc Ac trans Ci sp]
+18.7 +12.8 69 +20 +22 тепло 1013.1 1006.6
12 20.06 З 4
{8}
15 км 9/8 840 м
[Cu Sc Ac trans Ci sp]
+20.2 +12.7 62 +22 +24 комфорт 1013.2 1006.7

 

Местоположение метеостанции Брюссель (Бельгия): широта 50.90 долгота 4.53 высота над уровнем моря 58 м.

В архиве по умолчанию представлена погода в Брюсселе за последнюю неделю. Архивные данные за месяц целиком и за предыдущие месяцы, начиная с января 2011 года, Вы можете получить, выбрав интересующий диапазон дат из раскрывающегося списка и нажав кнопку "Ввод!".


*Определитесь, кто Вы:
робот инопланетянин человек

Внимание! Время в таблицах - всемирное. Для получения местного времени необходимо прибавить поправку, которая равна 1 ч.

Смотрите также архив погоды в соседних городах и на ближайших метеорологических станциях:

Погода в Уккеле (Бельгия) (17 км)
Погода в Бовешене (Бельгия) (24 км)
Погода в Эрнаже (Бельгия) (28 км)
Погода в Антверпене (Бельгия) (34 км)
Погода в Шаффене (Бельгия) (39 км)
Погода в Шарлеруа (Бельгия) (48 км)
Погода в Ретье (Бельгия) (50 км)
Погода в Мелле (Бельгия) (51 км)
Погода в Генте (Бельгия) (59 км)
Погода в Вестдорпе (Нидерланды) (59 км)

Пояснения к столбцам:

Ветер - указаны скорость ветра в м/с - средняя за 10 мин, порывы в срок и между сроками (в фигурных скобках) и направление, откуда дует ветер: С - северный, СВ - северо-восточный, В - восточный, ЮВ - юго-восточный, Ю - южный, ЮЗ - юго-западный, З - западный, СЗ - северо-западный.
Видимость - горизонтальная дальность видимости в метрах или километрах. При видимости от 1 до 10 км при отсутствии осадков обычно наблюдается дымка, при ухудшении видимости до 1 км и менее - туман. В сухую погоду видимость может ухудшаться дымом, пылью или мглою.
Явления - указаны атмосферные явления, наблюдавшиеся в срок или в последний час перед сроком; фигурными скобками обозначены явления, наблюдавшиеся между сроками (за 1-3 часа до срока); квадратными скобками обозначены град или гололедные отложения с указанием их диаметра в мм.
Облачность - указаны через наклонную черту общая и нижняя облачность в баллах и высота нижней границы облаков в метрах; квадратными скобками обозначены формы облаков: Ci - перистые, Cs - перисто-слоистые, Cc - перисто-кучевые, Ac - высококучевые, As - высокослоистые, Sc - слоисто-кучевые, Ns - слоисто-дождевые, Cu - кучевые, Cb - кучево-дождевые. Подробнее классификацию облаков см. в Атласе облаков (PDF).
T - Температура воздуха - температура, измеренная на высоте 2 м над землей.
Td - Температура точки росы - температура, при понижении до которой содержащийся в воздухе водяной пар достигнет насыщения.
f - Относительная влажность воздуха - влажноcть воздуха, измеренная на высоте 2 м над землей.
Te - Эффективная температура - температура, которую ощущает одетый по сезону человек в тени. Характеристика душности погоды. При расчете учитывается влияние влажности воздуха и скорости ветра на теплоощущения человека.
Tes - Эффективная температура на солнце - температура, которую ощущает человек, с поправкой на солнечный нагрев. Характеристика знойности погоды. Зависит от высоты солнца над горизонтом, облачности и скорости ветра. Ночью, в пасмурную погоду, а также при ветре 12 м/с и более поправка равна нулю.
P - Атмосферное давление - приведенное к уровню моря атмосферное давление.
Po - Атмосферное давление - измеренное на уровне метеостанции атмосферное давление.
Tmin - Минимальная температура - минимум температуры воздуха на высоте 2 м над землей.
Tmax - Максимальная температура - максимум температуры воздуха на высоте 2 м над землей.
R - Количество осадков - Количество выпавших осадков за период времени, мм. При наведении курсора мыши на число - период времени, за который выпало указанное количество осадков.
R24 - Количество осадков - Количество выпавших осадков за 24 часа, мм.
S - Снежный покров - Высота снежного покрова, см. При наведении курсора мыши на число - состояние снежного покрова и степень покрытия местности в баллах.